Weather reports worldwide

Advertisment
Deuselbach, Germany (10615): temperature & dewpoint: 06.11.2019 16:00:00 - 12.11.2019 16:00:00 (CET)Deuselbach, Germany (10615): temperature 5cm & temperature -5cm: 06.11.2019 16:00:00 - 12.11.2019 16:00:00 (CET)Deuselbach, Germany (10615): temperature -20cm & temperature -100cm: 06.11.2019 16:00:00 - 12.11.2019 16:00:00 (CET)Deuselbach, Germany (10615): wind speed & gusts: 06.11.2019 16:00:00 - 12.11.2019 16:00:00 (CET)Deuselbach, Germany (10615): wind direction: 06.11.2019 16:00:00 - 12.11.2019 16:00:00 (CET)Deuselbach, Germany (10615): reduced air pressure: 06.11.2019 16:00:00 - 12.11.2019 16:00:00 (CET)Deuselbach, Germany (10615): visibility: 06.11.2019 16:00:00 - 12.11.2019 16:00:00 (CET)Deuselbach, Germany (10615): sunshine duration: 06.11.2019 16:00:00 - 12.11.2019 16:00:00 (CET)Deuselbach, Germany (10615): precipitation: 06.11.2019 16:00:00 - 12.11.2019 16:00:00 (CET)
Date & Time tt [°C] td [°C] tt 5cm [°C] tt -5cm [°C] tt -20cm [°C] tt -100cm [°C] ff [km/h] ff [kn] fx [km/h] fx [kn] dd ppp [hPa] vv [km] sd [min] rr [mm]
12.11.2019 16:00:00 3,7 1,3 3,0 4,6 5,0 8,8 21 12 37 20 WSW 1003,7 53 0 0,0
12.11.2019 15:00:00 4,1 1,8 3,8 4,8 4,9 8,8 27 15 41 22 SW 1003,4 56 2 0,0
12.11.2019 14:00:00 3,7 2,0 3,6 4,8 4,7 8,8 23 12 42 23 WSW 1003,6 54 1 0,0
12.11.2019 13:00:00 3,6 2,4 3,8 4,7 4,6 8,8 22 12 37 20 SW 1004,0 35 2 0,1
12.11.2019 12:00:00 3,4 2,5 3,6 4,3 4,4 8,8 21 12 43 23 SW 1004,6 13 0 0,8
12.11.2019 11:00:00 3,1 2,1 2,8 3,6 4,4 8,8 22 12 52 28 SSW 1004,9 4,0 0 0,2
12.11.2019 10:00:00 2,9 1,7 2,8 3,3 4,3 8,8 21 12 40 21 SSW 1004,9 8 0 0,5
12.11.2019 09:00:00 2,8 1,8 2,6 3,1 4,3 8,8 26 14 43 23 SW 1005,7 23 0 0,0
12.11.2019 08:00:00 2,8 1,3 2,4 3,1 4,4 8,8 25 14 44 24 SSW 1005,6 35 0 0,0
12.11.2019 07:00:00 2,7 1,6 2,5 3,0 4,4 8,8 20 11 43 23 SW 1006,0 36 0 0,0
12.11.2019 06:00:00 2,7 1,3 2,1 3,1 4,5 8,9 22 12 43 23 SSW 1006,2 20 0 0,0
12.11.2019 05:00:00 2,6 1,5 2,1 3,1 4,5 8,9 21 12 39 21 SW 1006,7 46 0 0,0
12.11.2019 04:00:00 2,6 1,7 2,2 3,2 4,5 8,9 22 12 34 19 SW 1006,7 29 0 0,0
12.11.2019 03:00:00 2,7 1,8 2,2 3,2 4,6 8,9 20 11 38 20 SW 1006,8 26 0 0,0
12.11.2019 02:00:00 2,8 2,0 2,1 3,3 4,6 8,9 18 10 30 16 WSW 1006,8 36 0 0,0
12.11.2019 01:00:00 2,9 1,9 2,1 3,3 4,7 8,9 18 10 27 15 WSW 1007,0 51 0 0,0
12.11.2019 00:00:00 3,0 2,1 2,6 3,4 4,8 8,9 16 9 23 12 WSW 1006,9 49 0 0,0
11.11.2019 23:00:00 2,6 2,2 2,1 3,4 4,8 8,9 9 5 19 10 WSW 1006,5 39 0 0,0
11.11.2019 22:00:00 2,7 2,0 2,0 3,6 4,9 9,0 12 7 22 12 SW 1006,1 51 0 0,0
11.11.2019 21:00:00 2,7 2,0 2,4 3,7 5,0 9,0 14 8 26 14 SW 1006,0 11 0 0,5
11.11.2019 20:00:00 2,8 2,0 2,5 3,9 5,0 9,0 18 10 29 16 SW 1005,6 16 0 0,5
11.11.2019 19:00:00 2,9 1,9 2,4 4,0 5,1 9,0 16 8 36 20 SSW 1005,4 10 0 0,7
11.11.2019 18:00:00 3,2 1,9 2,8 4,2 5,1 9,0 22 12 42 23 S 1004,8 13 0 0,0
11.11.2019 17:00:00 3,5 1,7 3,0 4,6 5,1 9,0 22 12 33 18 S 1005,0 33 0 0,0
11.11.2019 16:00:00 4,0 1,4 3,9 5,0 5,0 9,0 21 12 37 20 S 1005,3 43 0 0,0
11.11.2019 15:00:00 4,3 1,5 4,6 5,3 4,8 9,1 22 12 41 22 SSW 1006,2 49 7 0,0
11.11.2019 14:00:00 4,3 1,2 4,7 5,1 4,5 9,1 18 10 32 17 SW 1007,2 50 8 0,0
11.11.2019 13:00:00 3,7 1,5 4,4 4,6 4,2 9,1 15 8 35 19 S 1008,3 40 0 0,0
11.11.2019 12:00:00 2,8 1,4 3,9 4,1 4,0 9,1 25 14 40 21 S 1009,5 25 10 0,0
11.11.2019 11:00:00 2,6 0,7 3,4 3,6 3,8 9,1 17 9 35 19 SSW 1010,4 37 0 0,0
11.11.2019 10:00:00 2,3 0,2 3,1 2,8 3,6 9,1 15 8 31 17 S 1011,3 46 46 0,0
11.11.2019 09:00:00 1,3 0,0 1,2 1,8 3,6 9,1 14 8 34 18 S 1012,0 49 1 0,0
11.11.2019 08:00:00 1,4 0,1 1,1 1,7 3,7 9,1 14 7 24 13 S 1012,4 55 0 0,0
11.11.2019 07:00:00 0,5 -0,1 0,4 1,6 3,8 9,2 7 4 14 8 SSW 1013,4 24 0 0,0
11.11.2019 06:00:00 -0,1 -0,1 -0,1 1,5 3,9 9,2 8 5 18 10 WSW 1014,6 11 0 0,0
11.11.2019 05:00:00 -0,9 -0,9 -1,0 1,5 4,0 9,2 15 8 22 12 W 1015,3 0,6 0 0,0
11.11.2019 04:00:00 -0,5 -1,1 -1,1 1,7 4,1 9,2 10 5 16 8 W 1015,2 13 0 0,0
11.11.2019 03:00:00 -0,4 -0,5 -0,7 1,8 4,3 9,2 6 4 11 6 S 1015,7 15 0 0,0
11.11.2019 02:00:00 0,0 0,0 -1,2 1,9 4,5 9,2 8 4 16 9 S 1015,5 30 0 0,0
11.11.2019 01:00:00 -1,1 -1,3 -1,5 2,1 4,7 9,2 4 2 9 5 SW 1016,7 15 0 0,0
11.11.2019 00:00:00 -1,7 -1,7 -2,7 2,5 4,9 9,3 3 2 7 4 ESE 1017,0 0,2 0 0,0
10.11.2019 23:00:00 -1,5 -1,5 -1,3 3,1 5,1 9,3 3 2 6 4 SSE 1017,1 0,1 0 0,0
10.11.2019 22:00:00 -0,9 -0,9 -0,4 3,4 5,2 9,3 5 3 6 3 SSE 1017,3 0,1 0 0,0
10.11.2019 21:00:00 -0,7 -0,7 -0,3 3,8 5,3 9,3 3 2 6 4 SE 1017,1 0,1 0 0,0
10.11.2019 20:00:00 0,4 0,4 0,7 4,2 5,4 9,3 5 3 6 4 SSE 1017,0 0,2 0 0,0
10.11.2019 19:00:00 1,0 1,0 1,5 4,5 5,5 9,3 5 3 9 5 SE 1017,0 0,1 0 0,0
10.11.2019 18:00:00 0,9 0,9 1,8 4,9 5,5 9,4 3 2 5 3 NNW 1016,5 0,1 0 0,0
10.11.2019 17:00:00 1,4 1,4 2,2 5,3 5,3 9,4 3 2 6 4 ENE 1015,6 0,1 0 0,0
10.11.2019 16:00:00 1,9 1,9 3,5 5,8 5,1 9,4 3 2 13 7 NW 1014,9 0,1 10 0,0
10.11.2019 15:00:00 3,3 2,0 6,9 6,2 4,7 9,4 11 6 13 7 NW 1013,7 17 60 0,0
10.11.2019 14:00:00 6,5 3,0 9,6 5,8 4,2 9,4 5 3 16 9 NNW 1012,5 54 60 0,0
10.11.2019 13:00:00 7,0 -0,2 9,0 4,4 3,7 9,4 10 5 19 10 SE 1012,1 54 60 0,0
10.11.2019 12:00:00 5,8 2,9 8,1 2,5 3,5 9,5 6 3 11 6 E 1012,2 72 60 0,0
10.11.2019 11:00:00 4,9 1,6 6,7 1,6 3,5 9,5 4 2 7 4 NNW 1012,2 51 60 0,0
10.11.2019 10:00:00 3,3 0,9 2,9 1,3 3,5 9,5 6 3 14 8 NNW 1011,9 53 60 0,0
10.11.2019 09:00:00 2,4 0,0 1,1 1,2 3,6 9,5 9 5 18 10 E 1011,6 46 38 0,0
10.11.2019 08:00:00 1,6 0,2 -0,7 1,2 3,7 9,5 12 6 19 10 ESE 1011,0 35 0 0,0
10.11.2019 07:00:00 0,7 -1,0 -1,2 1,3 3,8 9,5 11 6 19 10 ESE 1010,3 51 0 0,0
10.11.2019 06:00:00 1,8 0,4 -1,4 1,3 3,9 9,5 7 4 14 8 E 1009,7 38 0 0,0
10.11.2019 05:00:00 2,4 0,5 -0,6 1,4 4,0 9,6 8 5 15 8 ESE 1008,9 50 0 0,0
10.11.2019 04:00:00 2,0 0,7 -2,0 1,4 4,1 9,6 4 2 14 8 NE 1008,9 42 0 0,0
10.11.2019 03:00:00 2,1 0,3 -0,7 1,5 4,2 9,6 7 4 15 8 S 1009,0 50 0 0,0
10.11.2019 02:00:00 1,2 0,3 -3,2 1,6 4,4 9,6 3 2 9 5 ESE 1009,2 25 0 0,0
10.11.2019 01:00:00 0,0 -0,3 -2,7 1,7 4,6 9,6 5 3 9 5 E 1009,6 18 0 0,0
10.11.2019 00:00:00 0,7 0,0 -1,7 1,9 4,8 9,6 6 4 11 6 S 1009,6 21 0 0,0
09.11.2019 23:00:00 0,5 -0,3 -2,8 2,1 5,0 9,6 4 2 7 4 ESE 1009,5 32 0 0,0
09.11.2019 22:00:00 0,6 0,0 -2,3 2,4 5,3 9,6 3 2 10 6 SE 1009,8 16 0 0,0
09.11.2019 21:00:00 1,7 0,3 0,1 3,0 5,5 9,7 9 5 12 6 SSW 1009,9 33 0 0,0
09.11.2019 20:00:00 2,0 0,9 0,5 3,6 5,7 9,7 8 4 11 6 SW 1010,0 25 0 0,0
09.11.2019 19:00:00 2,5 1,3 0,8 4,1 5,8 9,7 8 4 17 9 SW 1009,9 28 0 0,0
09.11.2019 18:00:00 3,3 1,6 2,3 4,5 5,9 9,7 8 4 16 9 SW 1009,9 39 0 0,0
09.11.2019 17:00:00 3,5 2,0 3,0 5,1 5,8 9,7 9 5 18 10 SSW 1009,7 33 0 0,0
09.11.2019 16:00:00 3,7 2,3 3,8 5,3 5,8 9,7 10 6 22 12 SW 1009,9 34 0 0,0
09.11.2019 15:00:00 3,7 2,5 3,7 5,3 5,7 9,7 10 5 19 10 SW 1010,3 45 0 0,0
09.11.2019 14:00:00 3,9 2,3 4,2 5,5 5,5 9,8 11 6 22 12 SSW 1010,5 41 0 0,0
09.11.2019 13:00:00 4,0 2,0 4,6 5,4 5,3 9,8 10 6 22 12 SSW 1010,6 44 0 0,0
09.11.2019 12:00:00 4,0 2,3 5,0 4,9 5,1 9,8 14 7 26 14 WSW 1011,0 28 0 0,0
09.11.2019 11:00:00 3,5 2,2 3,9 4,4 5,0 9,8 11 6 21 11 SW 1011,2 27 0 0,0
09.11.2019 10:00:00 2,8 2,0 3,4 3,8 4,9 9,8 13 7 19 10 WSW 1011,4 21 25 0,0
09.11.2019 09:00:00 2,8 2,0 2,5 3,4 4,9 9,8 8 4 14 8 WSW 1011,4 17 11 0,0
09.11.2019 08:00:00 2,6 2,2 2,0 3,2 4,9 9,8 9 5 17 9 W 1011,3 9 0 0,0
09.11.2019 07:00:00 3,1 2,4 2,7 3,0 5,0 9,8 12 6 18 10 W 1010,7 13 0 0,0
09.11.2019 06:00:00 2,5 2,1 1,6 2,9 5,1 9,9 15 8 17 9 SW 1010,6 9 0 0,0
09.11.2019 05:00:00 3,2 2,7 1,7 3,3 5,1 9,9 9 5 13 7 WSW 1010,3 10 0 0,0
09.11.2019 04:00:00 2,9 2,5 2,3 3,1 5,2 9,9 8 4 12 7 WSW 1010,2 11 0 0,0
09.11.2019 03:00:00 2,2 2,0 0,3 3,0 5,4 9,9 4 2 9 5 SSW 1010,1 18 0 0,0
09.11.2019 02:00:00 2,6 2,1 1,5 3,0 5,6 9,9 6 3 10 6 SW 1010,0 25 0 0,0
09.11.2019 01:00:00 2,9 2,5 0,3 3,3 5,7 9,9 5 3 9 5 SSW 1009,7 24 0 0,0
09.11.2019 00:00:00 3,6 3,0 1,0 3,5 5,9 9,9 4 2 11 6 S 1009,3 30 0 0,0
08.11.2019 23:00:00 3,1 2,4 1,0 3,8 6,1 10,0 4 2 8 5 SSW 1009,2 35 0 0,0
08.11.2019 22:00:00 2,5 2,1 1,3 4,2 6,4 10,0 7 4 10 5 SW 1009,3 27 0 0,0
08.11.2019 21:00:00 3,1 2,5 0,8 4,6 6,5 10,0 5 3 8 5 SSW 1008,7 30 0 0,0
08.11.2019 20:00:00 3,3 2,6 1,2 5,1 6,7 10,0 4 2 10 5 SSE 1008,4 35 0 0,0
08.11.2019 19:00:00 4,2 3,5 2,6 5,7 6,8 10,0 6 3 8 4 SSW 1007,9 37 0 0,0
08.11.2019 18:00:00 4,8 4,0 3,0 6,1 6,8 10,0 4 2 5 3 SSW 1007,4 44 0 0,0
08.11.2019 17:00:00 5,5 4,4 4,1 6,7 6,7 10,0 5 3 8 5 NW 1006,7 41 0 0,0
08.11.2019 16:00:00 6,1 4,3 6,1 7,0 6,5 10,1 6 4 8 4 NNW 1006,3 49 0 0,0
08.11.2019 15:00:00 6,6 4,2 7,2 7,1 6,3 10,1 5 3 8 4 NNW 1005,5 47 0 0,0
08.11.2019 14:00:00 6,6 3,9 7,4 6,8 5,9 10,1 4 2 11 6 NNW 1005,4 49 0 0,0
08.11.2019 13:00:00 6,3 3,7 7,6 6,4 5,5 10,1 8 5 11 6 NNW 1005,5 51 19 0,0
08.11.2019 12:00:00 7,0 4,1 8,6 5,6 5,2 10,1 7 4 16 9 NW 1005,4 70 1 0,0
08.11.2019 11:00:00 7,0 2,7 7,5 4,7 4,9 10,1 6 3 16 8 ESE 1005,7 58 18 0,0
08.11.2019 10:00:00 5,0 3,3 5,1 3,4 4,9 10,1 5 3 8 4 NNW 1005,8 43 0 0,0
08.11.2019 09:00:00 2,7 1,5 2,1 2,5 4,9 10,1 4 2 9 5 NNW 1006,5 55 0 0,0
08.11.2019 08:00:00 2,9 1,7 0,8 2,3 5,1 10,1 4 2 9 5 E 1005,9 46 0 0,0
08.11.2019 07:00:00 2,7 1,6 -0,4 2,4 5,2 10,1 5 3 12 7 WNW 1005,7 40 0 0,0
08.11.2019 06:00:00 2,4 1,6 1,0 2,5 5,4 10,2 10 6 16 8 SE 1005,4 34 0 0,0
08.11.2019 05:00:00 1,4 0,7 0,1 2,6 5,6 10,2 3 1 10 5 NW 1005,8 20 0 0,0
08.11.2019 04:00:00 1,6 1,4 -0,3 2,8 5,8 10,2 4 2 7 4 SSE 1005,7 8 0 0,0
08.11.2019 03:00:00 2,7 1,9 0,2 3,1 6,0 10,2 2 1 19 10 SE 1005,8 31 0 0,0
08.11.2019 02:00:00 2,9 2,0 1,2 3,3 6,2 10,2 11 6 26 14 SSE 1005,8 31 0 0,0
08.11.2019 01:00:00 3,2 1,7 1,5 3,6 6,5 10,2 12 6 19 11 S 1006,0 36 0 0,0
08.11.2019 00:00:00 3,3 1,7 1,2 3,9 6,7 10,2 9 5 16 9 SSE 1005,5 48 0 0,0
07.11.2019 23:00:00 3,7 2,1 1,9 4,1 7,0 10,2 12 6 18 10 SSW 1005,2 53 0 0,0
07.11.2019 22:00:00 3,6 2,5 0,7 4,7 7,2 10,2 5 3 19 11 WSW 1004,7 39 0 0,0
07.11.2019 21:00:00 4,4 2,6 2,9 5,2 7,5 10,2 14 8 29 16 SW 1004,8 44 0 0,0
07.11.2019 20:00:00 5,1 3,0 3,5 5,6 7,7 10,2 17 9 30 16 SSW 1004,3 62 0 0,0
07.11.2019 19:00:00 5,2 3,3 3,7 6,0 7,9 10,2 13 7 28 15 SW 1003,8 53 0 0,0
07.11.2019 18:00:00 5,7 3,6 4,2 6,7 8,0 10,2 21 11 35 19 SW 1002,6 59 0 0,0
07.11.2019 17:00:00 6,0 4,7 5,2 7,2 8,0 10,2 15 8 31 17 SW 1001,7 48 9 0,0
07.11.2019 16:00:00 6,5 4,8 5,7 7,6 8,0 10,2 23 13 42 23 SW 1000,8 75 1 0,4
07.11.2019 15:00:00 6,9 5,6 6,6 7,8 7,9 10,2 27 14 42 23 WSW 999,6 18 1 0,1
07.11.2019 14:00:00 7,2 6,2 7,2 7,6 7,8 10,2 18 10 44 24 SW 998,6 75 1 0,4
07.11.2019 13:00:00 6,6 5,3 6,4 7,5 7,7 10,2 20 11 45 24 S 998,1 3,7 0 0,6
07.11.2019 12:00:00 6,2 4,3 5,8 6,9 7,7 10,2 21 11 49 27 S 998,2 8 0 1,9
07.11.2019 11:00:00 6,3 4,5 5,6 7,0 7,7 10,3 24 13 48 26 S 998,7 13 0 1,7
07.11.2019 10:00:00 6,5 4,7 6,1 6,9 7,7 10,3 25 13 44 24 SSE 998,8 13 0 0,5
07.11.2019 09:00:00 6,5 4,8 6,4 6,8 7,8 10,3 18 10 39 21 SSE 999,2 44 0 0,0
07.11.2019 08:00:00 6,8 5,0 6,5 6,7 7,8 10,3 14 8 33 18 S 999,4 48 0 0,0
07.11.2019 07:00:00 6,8 5,1 6,5 6,8 7,9 10,3 16 9 34 18 SSW 999,9 44 0 0,0
07.11.2019 06:00:00 6,9 5,2 6,6 6,8 7,9 10,3 18 10 37 20 S 1000,3 45 0 0,0
07.11.2019 05:00:00 6,8 4,9 6,4 6,8 8,0 10,3 17 9 26 14 S 1000,8 49 0 0,0
07.11.2019 04:00:00 6,5 5,1 5,7 6,9 8,1 10,3 12 7 28 15 SSW 1001,5 38 0 0,0
07.11.2019 03:00:00 6,6 5,3 6,2 6,9 8,1 10,3 11 6 21 11 SSW 1002,1 36 0 0,0
07.11.2019 02:00:00 6,5 5,3 5,9 7,0 8,2 10,3 13 7 20 11 SSW 1002,6 40 0 0,0
07.11.2019 01:00:00 6,5 5,4 5,8 7,2 8,3 10,3 9 5 23 12 SW 1003,2 52 0 0,0
07.11.2019 00:00:00 6,8 5,9 6,3 7,4 8,4 10,3 16 8 24 13 SW 1003,7 35 0 0,0
06.11.2019 23:00:00 6,9 6,1 6,5 7,5 8,4 10,3 13 7 26 14 SW 1004,0 24 0 0,0
06.11.2019 22:00:00 7,0 6,2 6,6 7,6 8,5 10,3 14 8 25 14 WSW 1003,9 27 0 0,0
06.11.2019 21:00:00 7,2 6,3 6,7 7,7 8,6 10,3 16 9 28 15 WSW 1003,7 31 0 0,0
06.11.2019 20:00:00 7,1 6,5 6,7 7,8 8,7 10,3 14 8 22 12 SW 1003,8 20 0 0,3
06.11.2019 19:00:00 7,1 6,5 6,7 7,9 8,8 10,3 8 4 19 10 SW 1003,9 5 0 1,0
06.11.2019 18:00:00 7,4 6,0 7,0 8,1 8,8 10,3 10 6 19 11 SW 1003,9 35 0 0,0
06.11.2019 17:00:00 7,5 6,0 7,1 8,5 8,8 10,3 11 6 20 11 SW 1003,8 42 0 0,0
06.11.2019 16:00:00 7,9 5,9 7,7 8,9 8,8 10,3 13 7 26 14 SW 1003,9 37 0 0,0

tt = temperature
td = dewpoint
tt 5cm = temperature 5cm
tt -5cm = temperature -5cm
tt -20cm = temperature -20cm
tt -100cm = temperature -100cm
ff = wind speed
fx = gusts
dd = wind direction
ppp = reduced air pressure
vv = visibility
sd = sunshine duration
rr = precipitation

Next stations